Regional Weather Roundup
Issued by NWS Northern Indiana

Home | Current Version | Previous Version | Graphics & Text | Print | Product List | Glossary On
Versions: 1 2 3 4 5 6 7 8 9 10 11 12 13 14 15 16 17 18 19 20 21 22 23 24 25 26 27 28 29 30 31 32 33 34 35 36 37 38 39 40 41 42 43 44 45 46 47 48 49 50
000
ASUS43 KIWX 232001
RWRIWX

KIWX WEATHER ROUNDUP
NATIONAL WEATHER SERVICE NORTHERN INDIANA
400 PM EDT WED AUG 23 2017

NOTE: "FAIR" INDICATES FEW OR NO CLOUDS BELOW 12,000 FEET WITH NO
SIGNIFICANT WEATHER AND/OR OBSTRUCTIONS TO VISIBILITY.

* THESE STATIONS ARE NOT UNDER NWS QUALITY CONTROL. THEY ALSO MAY NOT
  REPORT WEATHER SUCH AS PRECIPITATION OR FOG.

INZ001>027-232100-
NORTHERN INDIANA

CITY           SKY/WX    TMP DP  RH WIND       PRES   REMARKS
GARY*          MOSUNNY   73  55  53 NE8       30.05S
MICHIGAN CITY* SUNNY     72  54  53 N10       30.04S
SOUTH BEND     MOSUNNY   70  54  56 NW16      30.03S
ELKHART*       MOSUNNY   73  52  46 NW12G23   30.01F
GOSHEN         PTSUNNY   75  51  43 NW14      30.01S
MONTICELLO*    PTSUNNY   73  50  44 NW6       30.02F
FORT WAYNE     PTSUNNY   74  53  48 W10       30.00F
PERU/GRISSOM   MOSUNNY   74  53  46 NW10      30.01F

$$
INZ028>050-232100-
CENTRAL INDIANA

CITY           SKY/WX    TMP DP  RH WIND       PRES   REMARKS
LAFAYETTE      MOSUNNY   76  52  43 N10G18    30.02F
KOKOMO*        MOSUNNY   74  53  48 NW10      30.03F
MUNCIE*        PTSUNNY   77  52  41 NW9       30.02F
INDIANAPOLIS   MOSUNNY   78  49  35 NW13      30.03F

$$
MIZ043>046-050>051-056>058-064>065-071>073-077>080-232100-
SOUTHWEST LOWER MICHIGAN

CITY           SKY/WX    TMP DP  RH WIND       PRES   REMARKS
BATTLE CREEK   PTSUNNY   73  50  44 NW17      29.99F
BENTON HARBOR  MOSUNNY   70  52  52 NW9       30.03F
COLDWATER*     MOSUNNY   73  47  38 NW13      29.99S
HILLSDALE*     MOSUNNY   72  50  46 W12G18    29.98S
HOLLAND        MOSUNNY   69  53  56 NW12G20   30.03S
GRAND RAPIDS   PTSUNNY   74  50  42 W14       29.98S
KALAMAZOO      PTSUNNY   75  47  36 NW18      30.00S
STURGIS*       PTSUNNY   74  55  49 NW9       29.99S
THREE RIVERS*  PTSUNNY   75  51  42 NW16      30.01S

$$
OHZ001>008-015>018-024>025-232100-
NORTHWEST OHIO

CITY           SKY/WX    TMP DP  RH WIND       PRES   REMARKS
DEFIANCE       PTSUNNY   73  52  47 NW13      29.98F
FINDLAY        MOSUNNY   78  53  41 W9        29.97F
TOLEDO EXPRESS PTSUNNY   74  53  48 W13       29.96F
TOLEDO METCALF CLOUDY    74  53  48 W12       29.97S
LIMA           MOSUNNY   75  53  46 W12       29.99F

$$
AND FOR LAKE MICHIGAN COASTAL AND OPEN LAKE BUOY OBSERVATIONS

STATION/POSITION TEMP    WIND        PRES    VSBY  WAVE
                 AIR SEA DIR/SP/G                  HT/PER
                 (F)     (DEG/KT/KT) (MB)    (MI)  (FT/S)
CALUMET HARBOR    71      40/  8/ 10 1016.2F
MICHIGAN CITY     67      10/ 15/ 17   N/A
BURNS HARBOR      70      40/ 10/ 12 1017.3F
SAINT JOSEPH      69     330/ 12/ 14 1018.3
SOUTH LAKE BUOY   66 71  350/ 12/ 14 1017.1          3/ 5
4 MI NW BRIDGMAN  68 74   10/ 12/ 16 1017.1F         4/ 5
MICHIGAN CITY     68 74   30/ 12/ 17   N/A           4/ 6

$$
&&




USA.gov is the U.S. government's official web portal to all federal, state and local government web resources and services.